Location: Mauries
(43.6188°N, 0.3322°W)
Time: 06:27:19
(UTC+00:00)

Envisat - Pass Details

Date: 16 March 2026
Orbit: 761 x 762 km, 98.4° (Epoch: 14 April)

Event Time Altitude Azimuth Distance (km) Brightness Sun altitude
Rises 02:06:56 0° 20° (NNE) 3,234 7.0 -40.8°
Reaches altitude 10° 02:09:23 10° 28° (NNE) 2,303 6.1 -40.5°
Enters shadow 02:10:50 18° 37° (NE) 1,800 5.4 -40.3°
